KG0HG Weather Reports


Display with metric or nautical units.
time (UTC)temp
F
wind
direction
speed
MPH
gust
MPH
rain 1hr
in
rain 24hr
in
rain mn
in
humidity
%
barometer
mb
20260503210306 81 218 5.0 7.0 0.00 0.00 0.00 37 1009.3
20260503205800 81 355 2.0 10.0 0.00 0.00 0.00 37 1009.3
20260503205257 81 148 3.0 5.0 0.00 0.00 0.00 37 1009.1
20260503204753 80 211 4.0 10.0 0.00 0.00 0.00 37 1009.7
20260503204251 80 144 3.0 7.0 0.00 0.00 0.00 38 1009.4
20260503203749 80 167 4.0 6.0 0.00 0.00 0.00 38 1009.6
20260503203246 80 195 4.0 11.0 0.00 0.00 0.00 37 1009.7
20260503202743 79 192 3.0 9.0 0.00 0.00 0.00 38 1009.6
20260503202241 80 120 4.0 10.0 0.00 0.00 0.00 37 1010.1
20260503201738 80 138 2.0 7.0 0.00 0.00 0.00 38 1010.2
20260503201236 79 143 3.0 6.0 0.00 0.00 0.00 37 1010.2
20260503200732 78 267 4.0 7.0 0.00 0.00 0.00 38 1010.3
20260503200228 78 304 2.0 7.0 0.00 0.00 0.00 37 1010.2
20260503195725 79 246 5.0 8.0 0.00 0.00 0.00 39 1010.5
20260503195222 79 193 2.0 5.0 0.00 0.00 0.00 38 1010.3
20260503194720 78 122 2.0 9.0 0.00 0.00 0.00 39 1010.3
20260503194215 78 178 4.0 6.0 0.00 0.00 0.00 39 1010.5
20260503193712 77 165 4.0 5.0 0.00 0.00 0.00 39 1010.6
20260503193208 79 164 5.0 8.0 0.00 0.00 0.00 39 1010.7
20260503192703 78 323 3.0 7.0 0.00 0.00 0.00 39 1010.8
20260503192159 77 197 2.0 6.0 0.00 0.00 0.00 39 1010.8
20260503191655 76 137 2.0 5.0 0.00 0.00 0.00 39 1010.7
20260503191153 76 65 1.0 6.0 0.00 0.00 0.00 39 1011.1
20260503190650 76 176 4.0 7.0 0.00 0.00 0.00 41 1011.1
20260503190147 76 244 5.0 7.0 0.00 0.00 0.00 39 1011.1
20260503185643 77 329 6.0 8.0 0.00 0.00 0.00 39 1011.0
20260503185138 76 174 1.0 7.0 0.00 0.00 0.00 41 1011.2
20260503184634 75 149 2.0 8.0 0.00 0.00 0.00 41 1011.3
20260503184130 76 278 5.0 8.0 0.00 0.00 0.00 39 1011.0
20260503183627 75 243 3.0 11.0 0.00 0.00 0.00 40 1011.3
20260503183124 75 44 4.0 7.0 0.00 0.00 0.00 41 1011.4
20260503182622 75 180 7.0 8.0 0.00 0.00 0.00 41 1011.4
20260503182121 75 190 4.0 6.0 0.00 0.00 0.00 41 1011.5
20260503181617 74 262 5.0 7.0 0.00 0.00 0.00 40 1011.7
20260503181114 74 290 6.0 11.0 0.00 0.00 0.00 41 1012.1
20260503180611 75 219 4.0 9.0 0.00 0.00 0.00 40 1011.6
20260503180109 74 157 2.0 10.0 0.00 0.00 0.00 44 1011.6
20260503175605 73 191 5.0 10.0 0.00 0.00 0.00 42 1011.9
20260503175103 73 126 6.0 9.0 0.00 0.00 0.00 42 1012.1
20260503174559 73 277 5.0 13.0 0.00 0.00 0.00 42 1012.0
20260503174056 74 177 8.0 10.0 0.00 0.00 0.00 42 1012.1
20260503173551 73 191 3.0 8.0 0.00 0.00 0.00 42 1012.3
20260503173048 73 118 3.0 6.0 0.00 0.00 0.00 44 1012.1
20260503172545 73 241 5.0 8.0 0.00 0.00 0.00 43 1012.2
20260503172042 72 238 3.0 6.0 0.00 0.00 0.00 45 1012.4
20260503171538 74 347 4.0 5.0 0.00 0.00 0.00 45 1012.6
20260503171036 73 173 3.0 8.0 0.00 0.00 0.00 43 1012.3
20260503170532 73 165 3.0 7.0 0.00 0.00 0.00 45 1012.6
20260503150925 64 100 4.0 10.0 0.00 0.00 0.00 50 1013.9
20260503150421 64 148 9.0 11.0 0.00 0.00 0.00 49 1013.5
20260503131314 55 181 2.0 6.0 0.00 0.00 0.00 55 1015.0
20260503130812 54 156 3.0 9.0 0.00 0.00 0.00 55 1015.0
20260503130309 54 184 3.0 7.0 0.00 0.00 0.00 55 1015.0
20260503110703 51 143 1.0 2.0 0.00 0.00 0.00 58 1015.0
20260503110200 51 143 2.0 3.0 0.00 0.00 0.00 58 1014.9
20260503100126 48 80 0.0 1.0 0.00 0.00 0.00 66 1015.7
20260503081516 45 68 0.0 0.0 0.00 0.00 0.00 71 1016.4
20260503081013 45 68 0.0 0.0 0.00 0.00 0.00 72 1016.5
20260503080509 45 68 0.0 0.0 0.00 0.00 0.00 73 1016.5
20260503072443 45 68 0.0 0.0 0.00 0.00 0.00 75 1016.9
20260503071940 45 68 0.0 0.0 0.00 0.00 0.00 76 1016.8
20260503071437 45 68 0.0 0.0 0.00 0.00 0.00 76 1016.9
20260503070933 45 68 0.0 0.0 0.00 0.00 0.00 77 1016.9
20260503070430 45 68 0.0 0.0 0.00 0.00 0.00 77 1017.0
20260503054843 44 66 0.0 0.0 0.00 0.00 0.00 83 1017.5
20260503054339 44 66 0.0 0.0 0.00 0.00 0.00 83 1017.8
20260503053837 44 66 0.0 0.0 0.00 0.00 0.00 83 1017.6
20260503053336 44 66 0.0 0.0 0.00 0.00 0.00 84 1017.7
20260503052831 44 66 0.0 0.0 0.00 0.00 0.00 84 1017.9
20260503052329 44 66 0.0 0.0 0.00 0.00 0.00 84 1017.7
20260503051825 44 66 0.0 0.0 0.00 0.00 0.00 84 1017.9
20260503051321 44 66 0.0 0.0 0.00 0.00 0.00 84 1018.1
20260503050818 44 66 0.0 0.0 0.00 0.00 0.00 84 1018.1
20260503050314 44 66 0.0 0.0 0.00 0.00 0.00 84 1018.0
20260503045812 44 66 0.0 0.0 0.00 0.00 0.00 84 1018.1
20260503045310 44 66 0.0 0.0 0.00 0.00 0.00 84 1018.1
20260503044806 44 66 0.0 0.0 0.00 0.00 0.00 84 1018.2
20260503044303 45 66 0.0 0.0 0.00 0.00 0.00 84 1018.3
20260503043800 45 66 0.0 0.0 0.00 0.00 0.00 83 1018.4
20260503043257 45 66 0.0 0.0 0.00 0.00 0.00 83 1018.2
20260503042753 45 66 0.0 0.0 0.00 0.00 0.00 83 1018.4
20260503042250 45 66 0.0 0.0 0.00 0.00 0.00 83 1018.5
20260503041745 46 66 0.0 0.0 0.00 0.00 0.00 82 1018.2
20260503041244 46 66 0.0 0.0 0.00 0.00 0.00 82 1018.7
20260503040741 46 66 0.0 0.0 0.00 0.00 0.00 81 1018.6
20260503040239 46 66 0.0 0.0 0.00 0.00 0.00 80 1018.6
20260503035735 46 66 0.0 0.0 0.00 0.00 0.00 80 1018.8
20260503035233 46 66 0.0 0.0 0.00 0.00 0.00 80 1018.8
20260503034730 46 66 0.0 0.0 0.00 0.00 0.00 79 1018.8
20260503034227 46 66 0.0 0.0 0.00 0.00 0.00 78 1018.9
20260503033724 47 66 0.0 0.0 0.00 0.00 0.00 78 1018.8
20260503033221 47 66 0.0 0.0 0.00 0.00 0.00 78 1018.8
20260503032720 47 66 0.0 0.0 0.00 0.00 0.00 78 1018.9
20260503032218 47 66 0.0 0.0 0.00 0.00 0.00 77 1018.8
20260503031714 48 66 0.0 0.0 0.00 0.00 0.00 77 1018.9
20260503031208 48 66 0.0 0.0 0.00 0.00 0.00 77 1018.7
20260503030703 48 66 0.0 0.0 0.00 0.00 0.00 76 1018.8
20260503030200 48 66 0.0 0.0 0.00 0.00 0.00 75 1018.7
20260503025657 49 66 0.0 0.0 0.00 0.00 0.00 75 1018.9
20260503025155 49 66 0.0 0.0 0.00 0.00 0.00 73 1018.6
20260503024651 49 66 0.0 0.0 0.00 0.00 0.00 72 1018.8
20260503024148 50 66 0.0 0.0 0.00 0.00 0.00 72 1018.9
20260503023645 50 66 0.0 0.0 0.00 0.00 0.00 70 1018.9
20260503023142 50 66 0.0 0.0 0.00 0.00 0.00 69 1018.8
20260503022638 50 66 0.0 0.0 0.00 0.00 0.00 68 1018.8
20260503022137 51 66 0.0 0.0 0.00 0.00 0.00 67 1019.1
20260503021635 51 66 0.0 0.0 0.00 0.00 0.00 65 1018.8
20260503021131 52 66 0.0 0.0 0.00 0.00 0.00 64 1018.7
20260503020628 52 66 0.0 0.0 0.00 0.00 0.00 63 1018.9
20260503020126 53 66 0.0 0.0 0.00 0.00 0.00 61 1018.7
20260503015623 53 66 0.0 0.0 0.00 0.00 0.00 59 1018.8
20260503015120 54 66 0.0 0.0 0.00 0.00 0.00 59 1018.7
20260503014615 54 66 0.0 0.0 0.00 0.00 0.00 58 1018.8
20260503014113 55 66 0.0 0.0 0.00 0.00 0.00 56 1018.7
20260503013610 55 66 0.0 0.0 0.00 0.00 0.00 54 1018.5
20260503013108 55 66 0.0 0.0 0.00 0.00 0.00 52 1018.9
20260503012605 56 66 0.0 0.0 0.00 0.00 0.00 50 1018.7
20260503012102 57 66 0.0 0.0 0.00 0.00 0.00 48 1018.5
20260503011558 58 66 0.0 0.0 0.00 0.00 0.00 45 1018.5
20260503011056 58 66 0.0 0.0 0.00 0.00 0.00 44 1018.6
20260503010551 59 66 0.0 0.0 0.00 0.00 0.00 44 1018.4
20260503010050 60 66 0.0 0.0 0.00 0.00 0.00 41 1018.5
20260503005546 62 66 0.0 0.0 0.00 0.00 0.00 42 1018.5
20260503005044 62 66 0.0 0.0 0.00 0.00 0.00 39 1018.5
20260503004539 62 84 0.0 1.0 0.00 0.00 0.00 34 1018.6
20260503004038 62 85 0.0 1.0 0.00 0.00 0.00 33 1018.5
20260503003534 63 74 0.0 1.0 0.00 0.00 0.00 33 1018.5
20260503003032 64 26 1.0 3.0 0.00 0.00 0.00 31 1018.7
20260503002528 64 110 1.0 2.0 0.00 0.00 0.00 31 1018.7
20260503002025 64 110 0.0 2.0 0.00 0.00 0.00 31 1018.5
20260503001521 64 57 1.0 2.0 0.00 0.00 0.00 30 1018.7
20260503001019 64 91 1.0 2.0 0.00 0.00 0.00 31 1018.6
20260503000516 63 80 1.0 2.0 0.00 0.00 0.00 30 1018.8
20260503000013 63 332 3.0 3.0 0.00 0.00 0.00 30 1018.7
20260502235510 64 73 1.0 2.0 0.00 0.00 0.00 31 1018.5
20260502235008 64 334 1.0 3.0 0.00 0.00 0.00 30 1018.5
20260502234504 63 140 1.0 2.0 0.00 0.00 0.00 34 1018.6
20260502234001 64 131 2.0 2.0 0.00 0.00 0.00 31 1018.7
20260502233456 63 157 2.0 2.0 0.00 0.00 0.00 31 1018.8
20260502232953 64 147 2.0 5.0 0.00 0.00 0.00 30 1018.8
20260502232450 64 27 1.0 2.0 0.00 0.00 0.00 29 1018.6
20260502231946 64 30 2.0 7.0 0.00 0.00 0.00 29 1018.7
20260502231444 64 15 1.0 3.0 0.00 0.00 0.00 31 1018.7
20260502230942 64 305 4.0 5.0 0.00 0.00 0.00 29 1018.7
20260502230439 64 166 3.0 3.0 0.00 0.00 0.00 30 1019.0
20260502225937 63 20 2.0 2.0 0.00 0.00 0.00 29 1018.9
20260502225433 63 300 5.0 6.0 0.00 0.00 0.00 29 1019.0
20260502224930 64 76 1.0 3.0 0.00 0.00 0.00 29 1018.9
20260502224426 63 145 0.0 2.0 0.00 0.00 0.00 30 1018.9
20260502223923 64 238 3.0 5.0 0.00 0.00 0.00 30 1019.0
20260502223421 64 53 2.0 2.0 0.00 0.00 0.00 31 1019.0
20260502222919 63 144 1.0 7.0 0.00 0.00 0.00 30 1019.0
20260502222416 63 295 3.0 6.0 0.00 0.00 0.00 29 1019.0
20260502221911 64 132 4.0 5.0 0.00 0.00 0.00 31 1019.1
20260502221408 64 338 2.0 6.0 0.00 0.00 0.00 31 1019.0
20260502220905 64 146 1.0 3.0 0.00 0.00 0.00 30 1019.0
20260502220401 64 148 1.0 3.0 0.00 0.00 0.00 30 1019.1
20260502215857 64 303 2.0 3.0 0.00 0.00 0.00 32 1019.3
20260502215355 64 136 1.0 3.0 0.00 0.00 0.00 29 1019.5
20260502214851 64 137 1.0 3.0 0.00 0.00 0.00 29 1019.4
20260502214348 64 293 2.0 3.0 0.00 0.00 0.00 29 1019.5
20260502213846 64 343 4.0 5.0 0.00 0.00 0.00 30 1019.3
20260502213342 64 274 1.0 5.0 0.00 0.00 0.00 30 1019.4
20260502212841 62 315 6.0 7.0 0.00 0.00 0.00 29 1019.5
20260502212340 62 39 1.0 2.0 0.00 0.00 0.00 29 1019.5
20260502211836 63 310 7.0 8.0 0.00 0.00 0.00 29 1019.5
20260502211332 63 82 1.0 5.0 0.00 0.00 0.00 31 1019.5
20260502210829 63 350 3.0 6.0 0.00 0.00 0.00 29 1019.7